ONEWEB-0546, 56048

Orbit data source: Space-Track

ONEWEB-0546, 56048 is a payload satellite owned by One Web (NAA) (UK) in LEO that was launched on Sun, 26 Mar 2023 UTC via a LVM3 launch vehicle from the Sirharikota (SRI). Payload-class satellites include a variety of spacecraft equipped with specific instruments for various scientific and technological missions. These include communications satellites like Starlink; space stations such as the ISS; scientific satellites like the Hubble; Earth observation satellites from companies like Planet Labs, Umbra, and HawkEye 360; GPS; miniature CubeSats for education and research; and military/defense satellites.

Loading next visibility...
Identifier
56048, 2023-043C
Orbit
LEO
Country
Flag of UKUK
Related business
Manufacturer
One Web
Mission
Operational Commercial Communications
Bus & Motor
ARROW, Unknown motor
Mass
148 kg wet, ~140 kg dry
Launch date (UTC)
2023-03-26 (3 years ago)
Launch vehicle
LVM3
Launch site
Sirharikota (SRI)
Object type
Payload
Rocket body
Debris
Shape & HBR
Trap Box + 2 Pan, 6.7 m
Radar Cross Section
3.464 m², Large (>1 m²)

Expand to show TLE details & history
Last TLE update: 2 days ago

TLE from 2 days ago
0 ONEWEB-0546
1 56048U 23043C   26171.44346880  .00000120  00000-0  27923-3 0  9998
2 56048  87.9095 228.1272 0002743  93.4583 266.6861 13.16595140159392
Epoch: 2026-06-20T10:38Z
TLE epoch observation values (Epoch: 2026-06-20T10:38:35.704Z)
Latitude
-0.00008°
Longitude
159.82041°
Altitude
1,200.771 km
Speed
7.253 km/s
True Right ascension
15h 12m 30s
True Declination
0° 00' 00"
Sunlit
Object was in full shadow at epoch
Visualization orbit readout
Latitude
Unknown
Longitude
Unknown
Altitude
Unknown
Speed
Unknown
Apparent Right ascension
Unknown
Apparent Declination
Unknown
Sunlit
N/A
Visualization observer readout
Local Sidereal Time
21:27:09
Azimuth
Unknown
Elevation
Unknown
Doppler factor
Unknown
Orbital elements
Apogee altitude
1,196.941 km
Perigee altitude
1,192.786 km
Semi-major axis
7,573.001 km
Eccentricity
0.00027
Inclination
87.9095°
RAAN
228.1272°
Arg. of periapsis
93.4583°
True anomaly
266.65472°
Mean anomaly
266.6861°
Eccentric anomaly
266.67041°
Mean motion
3.29337 °/min
Orbital period
109.31 mins
BSTAR
0.00027923
Loading maneuver chart data...
Computing Atmospheric mass density...
Loading historical data...
Loading historical data...
Loading historical data...
Loading historical data...
Loading historical data...
Loading historical data...
Loading historical data...

Documentation

Showing up to 5 results
|